Location: Arboucave
(43.6130°N, 0.4343°W)
Time: 14:14:01
(UTC+00:00)

ARIANE 6 FM1 Upper Stage - Visible Passes

Search period start: 24 January 2026 00:00
Search period end: 03 February 2026 00:00
Orbit: 522 x 610 km, 62.0° (Epoch: 24 January)

Date Brightness Start Highest point End Pass type
(mag) Time Alt. Az. Time Alt. Az. Time Alt. Az.
24 Jan 3.6 17:32:39 10° S 17:36:12 29° ESE 17:39:43 10° ENE visible
24 Jan 4.0 19:11:29 10° WSW 19:15:10 33° NW 19:16:05 29° NNW visible
25 Jan 3.1 17:32:22 10° SSW 17:36:15 43° ESE 17:40:04 10° NE visible
25 Jan 4.4 19:12:03 10° W 19:15:25 24° NW 19:16:40 21° N visible
26 Jan 2.7 17:32:16 10° SSW 17:36:20 66° SE 17:40:18 10° NE visible
26 Jan 4.8 19:12:46 10° W 19:15:42 19° NW 19:17:10 16° N visible
27 Jan 2.7 17:32:19 10° SW 17:36:24 84° NW 17:40:26 10° NE visible
27 Jan 5.0 19:13:40 10° WNW 19:16:01 15° NNW 19:17:35 12° N visible
28 Jan 3.2 17:32:31 10° SW 17:36:32 57° NW 17:40:29 10° NNE visible
28 Jan 5.2 19:14:50 10° NW 19:16:22 12° NNW 19:17:52 10° N visible
29 Jan 3.7 17:32:50 10° WSW 17:36:41 40° NW 17:40:29 10° NNE visible
